Kezdőlap
METAR-TAF:

METAR-TAF

Repülőterek :

La Junta Municipal Airport

La Junta, Colorado, Amerikai Egyesült Államok

földrajzi szélesség: 38-02-58N, földrajzi hosszúság: 103-30-44W, magasság: 1288 m

Jelenlegi meteorológiai megfigyelések

A jelentés 1 órával és 10 perccel ezelõtt készült, 06:53 UTC
Észak-északkeleti szél 7 kt
Hőmérséklet 24°C
Páratartalom 38%
Légköri nyomás 1015 hPa
Látótávolság: 16.1 km
Derült ég

METAR: KLHX 130653Z AUTO 03007KT 10SM CLR 24/09 A2997 RMK AO2 SLP073 T02390094 403720167

Idő: 02:03 (08:03 UTC)


TAF: hiányzik

Meteorológiai megfigyelések és előrejelzések több, mint 4000 repülőtéren (METAR és TAF jelentéseket).

A térképen piros és sárga pontok jelzik az elérhető meteorológiai állomásokat.

Mozgassa az egeret a pont fölött, hogy megjelenjen az állomás neve.

Azután kattintson az időjárási megfigyelések és előrejelzések megtekintéséhez.

A térkép megváltoztatása: kattintson a fekete keresztel jelölt zöld gombra ráközelítéshez, a vonallal jelölt zöld gombra távolításhoz, vagy a zöld nyilakra a szomszédos térképek eléréséhez.


METAR-TAF: